Theta_e
310 309 310 310 310 311 311 312 312 312 313 312 311 311 311 311 312 312 312 314 315 315 316 315 315 317 317 318 320 322 318 322 325 336 346 347 345 347 344 338 337 345 345 343 341
310 310 310 310 310 310 311 311 312 313 313 313 312 311 311 311 312 312 315 314 315 316 316 314 317 318 318 319 320 319 318 323 329 347 349 347 348 343 348 345 343 346 343 340 339
310 311 311 311 310 310 310 311 312 313 313 313 312 311 311 311 312 318 319 316 316 316 315 314 315 316 318 319 320 320 318 323 337 347 349 348 348 345 346 346 344 342 339 342 342
310 310 311 311 310 310 310 311 312 313 313 313 311 311 311 312 324 324 321 318 317 315 314 314 317 317 317 316 320 317 321 325 342 343 345 346 342 345 345 343 340 337 336 338 339
309 310 311 311 310 310 310 311 312 312 313 313 311 310 311 314 314 320 319 317 316 314 314 316 317 318 316 318 319 318 320 336 342 341 340 340 338 337 335 335 335 333 333 332 333
310 310 311 311 310 310 310 312 312 312 314 313 310 310 311 316 321 321 321 319 320 318 314 316 317 318 319 319 317 322 322 334 337 336 336 335 334 333 331 329 327 327 326 326 327
310 310 311 311 310 310 311 312 312 312 314 311 310 310 312 314 320 324 323 321 318 319 318 318 318 318 320 318 321 322 322 332 334 334 333 333 332 331 328 327 325 324 323 322 322
310 310 311 310 310 310 312 312 312 314 313 310 310 310 313 321 319 320 322 321 319 320 319 319 319 319 320 320 320 318 319 326 331 331 333 331 333 329 327 326 324 323 322 321 319
310 310 311 310 310 312 312 313 313 313 311 310 311 313 321 321 320 320 321 321 320 318 318 320 321 320 320 317 315 317 316 318 329 330 330 329 331 330 328 326 324 322 321 319 318
309 310 311 310 311 312 312 312 311 311 311 311 313 318 321 323 321 319 321 320 321 320 320 321 321 317 314 314 315 318 317 317 321 327 327 328 328 328 327 326 324 322 320 318 317
309 310 310 310 311 312 311 312 321 320 317 316 318 318 321 322 322 317 320 321 321 321 318 322 317 314 315 316 319 320 319 318 319 326 327 327 328 327 326 325 323 321 319 317 316
309 310 311 310 311 311 311 318 328 327 323 323 324 322 321 322 319 318 320 321 323 322 321 321 317 317 319 319 320 321 319 327 326 325 325 327 326 324 324 323 323 321 319 317 315
309 310 311 311 312 313 318 322 323 323 323 322 322 325 325 323 323 321 320 321 322 323 323 322 323 323 322 321 321 320 319 325 326 327 326 326 325 324 323 324 323 320 319 317 315
309 310 310 311 315 322 323 324 323 323 321 324 323 322 326 323 322 322 321 321 322 321 322 321 323 324 323 322 321 319 320 322 327 325 324 324 324 323 322 320 319 318 317 315 314
309 310 310 314 325 324 326 326 322 322 330 327 325 324 326 324 323 323 322 321 321 322 321 321 322 322 322 322 322 320 321 320 324 325 324 325 322 322 322 320 318 316 316 315 313
309 310 310 311 319 322 322 323 322 327 331 326 324 325 323 324 324 323 323 322 322 320 321 321 324 323 322 323 322 323 321 320 320 321 327 324 324 322 323 322 318 317 314 313 312
309 310 310 312 317 322 322 322 326 328 329 329 328 327 325 324 324 324 324 322 320 320 320 321 322 322 324 322 322 321 320 323 323 320 322 325 324 322 323 321 319 314 314 312 312
309 310 310 312 320 321 322 324 327 328 328 326 325 327 327 327 325 324 324 323 322 320 319 320 322 323 324 322 321 320 321 322 326 326 323 324 327 322 321 321 316 314 313 312 312
311 311 313 312 316 318 320 325 326 328 325 325 324 324 324 326 329 329 324 324 324 323 322 322 322 324 328 326 322 322 323 323 324 323 324 325 322 319 318 315 314 313 313 311 310
322 324 322 317 316 321 322 323 324 324 323 323 323 324 323 328 330 331 330 328 328 326 324 326 327 324 329 327 324 323 324 322 320 327 328 328 327 320 315 314 312 312 312 311 310
317 325 322 320 320 322 323 323 325 325 321 322 322 322 322 323 325 331 332 328 328 326 325 325 328 329 328 328 326 326 324 326 322 320 323 328 332 318 315 314 313 313 311 311 310
324 328 320 319 321 323 323 326 324 323 322 324 324 325 325 325 326 324 329 330 325 325 327 326 325 330 328 326 328 327 327 328 329 328 326 330 324 322 316 314 314 312 311 311 310
326 325 321 320 324 325 326 326 325 324 324 323 323 323 324 324 325 326 325 326 321 324 326 325 328 328 327 326 328 331 330 326 327 326 326 328 328 320 316 313 312 311 310 309 309
325 329 322 320 324 328 327 326 326 323 323 321 323 323 324 323 322 324 325 323 321 319 316 321 324 329 329 330 329 329 327 326 326 325 326 326 322 318 313 311 310 310 309 309 309
323 326 323 325 323 324 324 323 324 322 319 321 322 321 320 322 322 323 321 322 322 319 321 321 325 324 323 323 325 324 324 323 324 324 328 325 324 319 314 310 310 310 309 309 308
321 322 320 322 319 320 319 319 319 320 318 319 319 317 316 318 319 319 318 319 322 320 319 320 322 323 323 322 321 322 322 320 321 321 324 323 322 316 313 311 310 310 309 308 307
316 317 319 319 318 318 316 317 317 316 316 315 315 315 316 316 314 314 314 315 316 315 318 319 319 322 322 320 320 322 315 315 314 313 320 323 315 312 310 310 309 309 308 307 306
Wind_Speed
11 11 11 11 11 12 11 11 12 11 11 11 11 12 13 13 14 18 21 16 9 8 11 10 7 5 6 14 16 19 3 7 14 5 7 18 30 28 23 27 12 14 21 18 20
11 12 11 12 12 12 10 11 11 11 10 10 11 11 12 14 16 22 17 14 14 12 9 8 6 6 14 14 11 5 2 8 7 22 21 33 37 37 22 10 15 21 25 25 24
12 12 11 12 13 11 10 9 10 10 10 9 10 10 10 12 15 8 4 9 13 12 11 12 14 17 18 19 23 16 8 5 11 36 42 33 31 30 31 12 14 15 25 28 31
12 12 12 12 12 11 10 9 9 9 9 9 9 9 9 8 2 2 5 4 8 9 11 11 10 8 7 7 23 8 18 10 19 34 36 28 21 22 23 15 23 19 20 22 25
11 11 12 12 10 9 9 9 9 9 9 8 8 8 8 7 17 9 5 2 6 12 13 12 10 16 6 10 17 7 14 17 32 36 36 33 22 21 23 23 20 19 17 17 15
11 10 11 11 10 9 9 9 8 8 8 7 7 7 7 7 4 6 6 6 7 9 12 14 11 14 14 15 8 19 17 24 27 29 33 30 23 10 20 20 19 17 16 15 12
10 10 9 10 9 8 9 8 8 7 6 7 7 7 12 20 1 5 6 5 9 6 11 11 16 23 19 8 16 19 7 15 20 22 18 31 10 12 21 18 20 17 13 12 10
9 9 8 8 8 8 8 7 6 6 6 5 6 7 11 5 14 6 10 7 4 8 12 14 18 17 12 17 20 8 5 7 11 17 21 8 9 17 24 22 21 19 14 10 10
9 8 8 7 7 7 6 5 5 5 5 5 4 6 13 6 14 12 15 14 14 9 11 12 11 14 13 5 6 7 5 6 7 18 8 6 11 16 23 23 22 20 16 12 10
9 8 7 6 6 5 4 4 4 5 5 6 8 8 13 15 16 16 16 15 14 11 10 13 6 2 5 1 7 8 6 7 8 13 10 11 9 15 24 23 22 22 19 15 10
9 7 7 6 5 4 5 3 4 4 12 12 10 14 15 3 12 14 17 16 16 12 7 15 4 7 12 11 13 11 7 16 11 14 12 11 14 13 19 21 21 22 20 16 11
9 7 6 6 5 5 7 7 7 16 12 19 26 29 31 18 10 12 17 18 14 7 11 5 8 12 13 15 15 16 11 3 6 19 9 15 10 8 13 15 22 22 21 18 15
8 6 5 5 4 4 7 8 9 12 12 23 29 31 28 20 14 15 20 21 10 9 9 10 10 18 16 13 15 11 11 6 9 5 17 16 8 12 11 16 23 23 21 20 19
8 5 5 3 2 3 8 5 12 11 4 7 8 17 23 25 16 20 24 20 10 11 12 9 17 17 14 15 11 8 10 6 16 6 6 8 5 12 13 9 14 24 22 21 19
8 5 6 8 2 8 13 5 13 6 4 8 8 6 20 25 13 17 21 26 11 12 9 12 11 13 14 11 8 7 6 6 7 13 6 8 2 7 15 11 12 22 22 18 17
7 5 7 8 8 7 10 15 9 1 6 5 7 5 7 16 19 25 19 26 22 11 14 14 27 15 13 10 13 6 7 9 7 8 9 11 10 6 19 24 14 21 27 23 18
6 5 8 11 6 5 9 7 2 3 11 9 3 5 9 6 10 12 8 10 6 4 7 13 17 16 19 9 7 5 3 3 3 6 5 13 9 4 15 22 21 24 29 25 20
3 3 7 12 7 5 5 3 3 8 11 14 18 12 8 4 7 11 8 7 10 9 8 11 13 14 17 10 10 8 9 6 7 4 8 6 2 9 3 28 35 34 30 22 22
2 2 4 5 9 3 8 2 4 9 11 10 13 9 7 14 13 12 9 9 5 7 6 7 17 16 3 8 12 10 4 7 8 9 7 5 5 10 17 22 29 29 28 26 21
1 3 4 4 2 0 1 5 5 9 11 10 7 6 10 8 6 11 6 8 10 11 13 11 9 15 5 10 8 6 1 3 3 4 9 5 5 9 8 15 16 18 24 24 18
2 2 5 4 5 4 2 6 12 7 7 4 8 8 10 11 10 1 3 11 10 9 9 11 5 10 5 2 4 6 4 5 2 3 5 3 3 13 21 18 17 21 26 22 20
3 1 3 9 2 5 3 7 4 6 12 7 8 7 8 9 7 6 4 5 3 5 3 7 5 6 9 16 5 6 12 5 3 7 3 2 3 6 15 21 25 24 27 22 21
3 3 3 6 2 4 9 14 15 11 8 5 5 8 9 7 6 8 11 9 4 4 3 4 3 9 15 10 10 7 6 8 3 2 2 2 2 5 17 19 25 27 22 22 18
6 2 2 6 9 8 6 7 10 13 12 17 8 12 8 7 8 7 10 9 9 6 5 2 3 3 6 3 4 3 4 2 4 3 4 3 4 9 9 12 20 25 22 16 14
10 4 10 3 7 7 9 14 13 12 16 15 9 13 11 6 7 9 8 8 11 5 4 3 2 6 10 14 10 13 14 6 4 7 8 10 13 15 13 11 21 22 21 20 16
8 7 16 6 23 17 10 11 15 14 9 10 10 7 9 7 6 7 8 6 5 7 7 5 2 3 5 12 13 14 4 7 8 10 12 15 9 12 22 26 22 22 20 19 15
21 18 10 17 15 8 9 12 12 21 11 18 8 5 7 11 19 20 19 18 11 6 5 3 0 3 3 7 8 4 14 6 10 8 3 13 9 20 14 19 20 16 18 17 14
Wind_Direction
308 306 298 294 295 291 291 292 291 289 285 283 280 277 278 279 277 275 263 256 259 243 269 273 248 262 254 265 278 283 305 292 287 37 70 75 80 71 111 130 173 160 126 134 133
309 303 304 301 295 289 290 293 295 290 285 282 281 281 287 290 291 275 281 244 225 245 272 268 223 225 240 253 256 218 242 258 283 97 97 82 86 94 81 119 128 138 149 153 142
303 303 304 301 293 290 291 293 295 293 291 284 278 277 284 296 307 294 331 232 223 235 256 246 258 283 252 242 241 254 239 299 51 97 101 100 107 132 143 81 76 90 86 100 108
303 301 302 298 294 295 296 298 294 289 283 275 270 274 282 294 275 357 320 281 219 228 238 226 255 266 244 234 243 253 260 245 85 96 102 107 100 85 93 108 108 96 96 105 106
306 305 300 297 296 295 293 293 292 289 280 273 269 270 281 276 255 298 301 226 207 212 210 201 269 277 257 239 260 249 250 109 114 108 112 115 110 102 91 100 104 100 96 89 98
312 305 298 297 299 296 292 290 285 278 271 271 264 266 271 257 357 243 288 224 224 212 206 195 223 225 267 267 239 250 234 118 111 107 109 111 125 101 118 116 100 94 80 88 96
317 307 300 299 299 297 294 288 280 270 264 267 265 266 260 242 142 219 274 255 225 201 183 213 242 250 272 299 282 281 119 113 127 137 127 112 82 111 127 118 108 96 81 74 70
320 309 301 298 298 296 293 285 275 268 266 264 263 273 262 208 211 205 249 241 156 199 244 252 271 269 294 296 298 297 139 140 172 137 163 145 142 142 142 135 126 121 117 103 84
324 312 302 301 296 295 290 278 265 255 254 256 251 267 268 274 220 220 215 229 216 220 235 261 280 266 283 297 312 271 214 206 165 158 155 149 144 153 156 145 140 137 135 126 112
326 314 306 299 293 287 265 253 256 253 245 257 224 285 250 235 220 215 208 223 214 210 235 237 276 236 287 261 235 243 195 269 174 191 163 150 144 152 161 154 151 143 136 129 118
327 314 303 292 292 269 243 233 293 228 221 221 231 226 284 337 212 195 202 219 240 197 218 209 181 220 230 234 244 253 216 222 242 179 153 154 142 161 163 160 152 141 137 131 123
328 310 294 286 288 263 249 248 298 316 290 282 267 251 269 278 183 205 198 216 238 209 215 253 217 226 221 234 244 253 254 110 353 148 96 132 146 149 164 171 161 158 148 144 140
327 304 281 285 289 284 274 285 342 328 296 288 250 238 244 248 237 212 206 210 219 236 239 210 237 227 235 239 246 246 236 177 162 126 122 131 147 170 187 175 169 160 158 156 149
323 292 262 244 245 301 262 8 330 341 314 269 190 237 231 242 229 242 207 203 226 241 232 241 245 251 243 234 230 249 255 209 147 125 175 163 199 190 178 156 145 143 140 134 137
318 276 236 209 268 263 330 349 320 314 302 160 144 185 202 206 249 208 229 199 220 237 242 258 264 267 266 244 248 223 287 282 148 171 156 204 126 210 163 172 170 150 154 156 145
309 260 227 227 249 356 324 330 317 321 251 182 141 173 198 214 224 256 239 196 213 232 265 264 271 271 261 264 246 212 262 269 243 175 215 189 187 183 179 191 161 145 142 141 141
308 249 226 218 195 330 359 306 313 224 328 39 142 179 182 242 221 250 227 187 194 247 267 266 268 271 270 273 287 178 211 270 313 249 214 198 205 136 220 177 153 137 142 145 146
323 257 238 223 223 350 4 344 266 292 331 349 359 351 335 301 231 235 251 204 218 204 239 266 275 251 252 219 210 230 174 168 238 238 256 223 309 334 109 131 130 134 137 143 147
16 7 301 224 214 354 329 292 258 321 20 1 332 325 344 356 12 356 267 245 215 23 10 298 262 269 288 310 201 234 238 211 225 250 265 135 90 28 101 117 124 131 138 127 122
135 330 313 96 129 110 315 256 296 35 15 349 326 335 341 10 11 356 328 16 345 34 23 351 280 255 288 352 346 140 203 1 333 204 242 86 138 149 130 116 120 125 122 127 132
352 291 185 159 183 219 229 255 300 17 43 345 328 326 325 324 350 245 251 312 343 328 52 14 22 319 16 23 295 4 5 8 262 170 193 227 212 176 154 147 144 139 139 143 153
353 261 150 167 203 229 248 274 251 13 9 16 343 350 354 3 353 324 162 240 355 290 297 83 316 318 299 316 351 10 16 69 94 317 293 149 264 192 164 146 145 142 146 159 151
292 189 139 168 273 326 341 338 355 19 5 12 339 347 340 341 324 337 326 187 258 47 110 115 237 312 319 308 44 58 354 338 147 34 358 55 353 26 132 123 125 128 133 138 131
346 50 115 203 5 360 355 334 346 45 21 355 336 333 319 14 352 330 14 6 50 64 86 120 223 214 239 275 214 234 221 324 123 80 345 89 142 94 101 118 122 128 135 129 138
10 43 11 357 7 344 17 13 1 356 19 6 355 2 4 351 334 306 28 360 354 90 320 101 328 343 325 323 282 278 276 277 213 202 188 166 174 166 153 136 130 142 148 142 137
30 14 340 339 41 55 24 5 354 347 12 330 343 0 352 352 4 336 10 14 250 335 354 337 264 280 311 312 313 317 266 278 282 297 142 167 156 148 142 133 139 143 145 140 133
21 9 343 30 44 29 16 351 352 345 353 328 340 28 347 352 334 316 304 290 267 273 267 235 191 318 232 294 327 16 358 42 74 27 146 152 138 128 123 125 130 132 130 130 137